Location: Austin
(30.3000°N, 97.7500°W)
Time: 07:39:30
(UTC-06:00)

Fermi - Pass Details

Date: 16 November 2025
Orbit: 492 x 503 km, 25.6° (Epoch: 07 December)

Event Time Altitude Azimuth Distance (km) Brightness Sun altitude
Rises 19:25:27 0° 263° (W) 2,569 8.7 -24.1°
Reaches altitude 10° 19:27:47 10° 255° (WSW) 1,689 7.4 -24.6°
Enters shadow 19:30:51 34° 206° (SSW) 827 4.9 -25.2°
